User: anonymous   Login
Location: Unspecified
(0.0000°N, 0.0000°E)
Time: 17:28:46
(UTC+00:00)
Language:

HODOYOSHI 3 - Orbit

View from above orbital plane
View from above orbital plane
View from above satellite
View from above satellite

Ground track
Ground track

The orbit data is extracted from the following two-line orbital elements,

1 40015U 14033F   21337.11059782  .00000145  00000-0  26343-4 0  9992
2 40015  97.6620 195.6308 0037608  24.9004 335.4011 14.78724792402326
Epoch (UTC): 03 December 2021 02:39:15
Eccentricity: 0.0037608
inclination: 97.6620°
perigee height: 607 km
apogee height: 660 km
right ascension of ascending node: 195.6308°
argument of perigee: 24.9004°
revolutions per day: 14.78724792
mean anomaly at epoch: 335.4011°
orbit number at epoch: 40232

The dashed part of the orbit path shows where the satellite is in the earth's shadow,  

DLR